TimeEEST,TemperatureF,Dew PointF,Humidity,Sea Level PressureIn,VisibilityMPH,Wind Direction,Wind SpeedMPH,Gust SpeedMPH,PrecipitationIn,Events,Conditions,WindDirDegrees,DateUTC
12:50 AM,69.8,55.4,60,29.80,6.2,NNW,11.5,-,N/A,,Mostly Cloudy,330,2012-09-15 21:50:00
1:50 AM,71.6,53.6,53,29.80,6.2,NNW,6.9,-,N/A,,Light Drizzle,330,2012-09-15 22:50:00
2:50 AM,69.8,59.0,68,29.86,5.6,Calm,Calm,-,N/A,Rain,Light Rain,0,2012-09-15 23:50:00
3:50 AM,68.0,60.8,78,29.83,5.0,NNE,8.1,-,N/A,Rain,Light Rain,20,2012-09-16 00:50:00
4:50 AM,68.0,59.0,73,29.77,6.2,WNW,8.1,-,N/A,,Mostly Cloudy,290,2012-09-16 01:50:00
5:50 AM,69.8,59.0,68,29.77,6.2,NW,5.8,-,N/A,,Mostly Cloudy,320,2012-09-16 02:50:00
6:20 AM,69.8,59.0,68,29.77,6.2,NW,4.6,-,N/A,,Mostly Cloudy,320,2012-09-16 03:20:00
6:50 AM,69.8,59.0,68,29.77,6.2,NNW,6.9,-,N/A,,Mostly Cloudy,330,2012-09-16 03:50:00
7:20 AM,69.8,59.0,68,29.77,6.2,NW,5.8,-,N/A,,Mostly Cloudy,320,2012-09-16 04:20:00
7:50 AM,69.8,59.0,68,29.80,6.2,West,5.8,-,N/A,,Mostly Cloudy,270,2012-09-16 04:50:00
8:20 AM,69.8,59.0,68,29.80,6.2,NNE,6.9,-,N/A,,Mostly Cloudy,20,2012-09-16 05:20:00
8:50 AM,68.0,59.0,73,29.80,6.2,NNE,6.9,-,N/A,Rain,Light Rain,20,2012-09-16 05:50:00
9:20 AM,68.0,60.8,78,29.80,6.2,SW,6.9,-,N/A,Rain,Light Rain,230,2012-09-16 06:20:00
9:50 AM,66.2,62.6,88,29.83,6.2,Variable,3.5,-,N/A,Rain,Light Rain,0,2012-09-16 06:50:00
10:20 AM,68.0,62.6,83,29.83,6.2,Variable,3.5,-,N/A,,Overcast,0,2012-09-16 07:20:00
10:50 AM,69.8,62.6,78,29.80,6.2,Variable,3.5,-,N/A,,Mostly Cloudy,0,2012-09-16 07:50:00
11:20 AM,69.8,62.6,78,29.80,6.2,West,6.9,-,N/A,,Mostly Cloudy,270,2012-09-16 08:20:00
11:50 AM,69.8,62.6,78,29.83,6.2,Variable,3.5,-,N/A,Rain,Light Rain,0,2012-09-16 08:50:00
12:20 PM,69.8,62.6,78,29.83,6.2,Calm,Calm,-,N/A,Rain,Light Rain,0,2012-09-16 09:20:00
12:50 PM,69.8,62.6,78,29.80,6.2,Calm,Calm,-,N/A,Rain,Light Rain,0,2012-09-16 09:50:00
1:20 PM,69.8,62.6,78,29.80,6.2,Calm,Calm,-,N/A,,Overcast,0,2012-09-16 10:20:00
1:50 PM,69.8,62.6,78,29.80,6.2,Calm,Calm,-,N/A,,Mostly Cloudy,0,2012-09-16 10:50:00
2:20 PM,71.6,62.6,73,29.80,6.2,Calm,Calm,-,N/A,,Mostly Cloudy,0,2012-09-16 11:20:00
2:50 PM,71.6,64.4,78,29.80,6.2,SE,4.6,-,N/A,,Overcast,140,2012-09-16 11:50:00
3:20 PM,71.6,64.4,78,29.80,6.2,Variable,3.5,-,N/A,,Overcast,0,2012-09-16 12:20:00
3:50 PM,71.6,64.4,78,29.77,6.2,Calm,Calm,-,N/A,,Overcast,0,2012-09-16 12:50:00
4:20 PM,73.4,66.2,78,29.77,6.2,NW,8.1,-,N/A,,Mostly Cloudy,320,2012-09-16 13:20:00
4:50 PM,75.2,62.6,65,29.77,6.2,North,4.6,-,N/A,,Mostly Cloudy,350,2012-09-16 13:50:00
5:20 PM,75.2,62.6,65,29.77,6.2,NW,4.6,-,N/A,,Mostly Cloudy,310,2012-09-16 14:20:00
5:50 PM,75.2,62.6,65,29.77,6.2,Calm,Calm,-,N/A,,Mostly Cloudy,0,2012-09-16 14:50:00
6:20 PM,75.2,62.6,65,29.77,6.2,Calm,Calm,-,N/A,,Mostly Cloudy,0,2012-09-16 15:20:00
6:50 PM,73.4,64.4,73,29.77,6.2,Calm,Calm,-,N/A,,Mostly Cloudy,0,2012-09-16 15:50:00
7:20 PM,73.4,66.2,78,29.77,6.2,Calm,Calm,-,N/A,,Mostly Cloudy,0,2012-09-16 16:20:00
7:50 PM,71.6,66.2,83,29.77,6.2,Calm,Calm,-,N/A,,Mostly Cloudy,0,2012-09-16 16:50:00
8:20 PM,71.6,62.6,73,29.77,6.2,Calm,Calm,-,N/A,,Mostly Cloudy,0,2012-09-16 17:20:00
8:50 PM,71.6,60.8,69,29.80,6.2,Calm,Calm,-,N/A,,Mostly Cloudy,0,2012-09-16 17:50:00
9:20 PM,69.8,60.8,73,29.80,6.2,Calm,Calm,-,N/A,,Mostly Cloudy,0,2012-09-16 18:20:00
9:50 PM,69.8,60.8,73,29.80,6.2,Calm,Calm,-,N/A,,Mostly Cloudy,0,2012-09-16 18:50:00
10:20 PM,69.8,60.8,73,29.80,6.2,Calm,Calm,-,N/A,,Mostly Cloudy,0,2012-09-16 19:20:00
10:50 PM,69.8,60.8,73,29.80,6.2,Variable,2.3,-,N/A,,Mostly Cloudy,0,2012-09-16 19:50:00
11:20 PM,69.8,59.0,68,29.80,6.2,Variable,2.3,-,N/A,,Mostly Cloudy,0,2012-09-16 20:20:00
11:50 PM,71.6,59.0,64,29.80,6.2,Variable,3.5,-,N/A,,Scattered Clouds,0,2012-09-16 20:50:00